User: anonymous   Login
Location: Unspecified
(0.0000°N, 0.0000°E)
Time: 07:25:50
(UTC+00:00)
Language:

Sunsat (SO-35) - Orbit

View from above orbital plane
View from above orbital plane
View from above satellite
View from above satellite

Ground track
Ground track

The orbit data is extracted from the following two-line orbital elements,

1 25636U 99008C   20224.89373073 +.00000006 +00000-0 +98471-5 0  9998
2 25636 096.4478 215.1250 0143761 269.1015 089.3708 14.44721474130797
Epoch (UTC): 11 August 2020 21:26:58
Eccentricity: 0.0143761
inclination: 96.4478°
perigee height: 640 km
apogee height: 845 km
right ascension of ascending node: 215.1250°
argument of perigee: 269.1015°
revolutions per day: 14.44721474
mean anomaly at epoch: 89.3708°
orbit number at epoch: 13079

The dashed part of the orbit path shows where the satellite is in the earth's shadow,  

DLR